Private Wetterstation Wechselburg
Wetterdaten: Dienstag, 02.03.2021
Datum Zeit Temp. +2m Bodentemp. Temp.+5cm Temp. Wind Windchill X Diff Temp. Feuchte +2m Feuchte +5cm Luftdruck Regen Wind Richtung Richtung Sonnenschein Taupunkt Windchill Windben
02.03.2021 00:00 -1,1 C 6,1 C -0,2 C -0,8 C -0,8 C 0,3 C 88 % 93 % 1035,7 hPa 0,0 l/m 0,0 km/h (0 Bft) N-NW 337 0 min -2,8 C -0,8 C 0,0 km/h (0 Bft)
02.03.2021 00:05 -1,1 C 6,1 C -0,2 C -0,8 C -0,8 C 0,3 C 88 % 93 % 1035,7 hPa 0,0 l/m 0,0 km/h (0 Bft) N-NW 337 0 min -2,8 C -0,8 C 0,0 km/h (0 Bft)
02.03.2021 00:11 -1,2 C 5,9 C -0,2 C -0,8 C -0,8 C 0,4 C 88 % 93 % 1035,9 hPa 0,0 l/m 0,0 km/h (0 Bft) N 0 0 min -2,9 C -0,8 C 0,0 km/h (0 Bft)
02.03.2021 00:26 -1,3 C 5,9 C -0,3 C -0,9 C -0,9 C 0,4 C 89 % 93 % 1035,9 hPa 0,0 l/m 0,0 km/h (0 Bft) S 180 0 min -2,9 C -0,9 C 0,0 km/h (0 Bft)
02.03.2021 00:38 -1,5 C 5,9 C -0,4 C -1,1 C -1,1 C 0,4 C 89 % 93 % 1036,1 hPa 0,0 l/m 0,0 km/h (0 Bft) S-SW 202 0 min -3,1 C -1,1 C 0,0 km/h (0 Bft)
02.03.2021 00:40 -1,5 C 5,9 C -0,4 C -1,1 C -1,1 C 0,4 C 89 % 93 % 1036,1 hPa 0,0 l/m 0,0 km/h (0 Bft) S-SW 202 0 min -3,1 C -1,1 C 0,0 km/h (0 Bft)
02.03.2021 00:45 -1,5 C 5,9 C -0,5 C -1,2 C -1,2 C 0,3 C 89 % 93 % 1036,1 hPa 0,0 l/m 0,0 km/h (0 Bft) S 180 0 min -3,1 C -1,2 C 0,0 km/h (0 Bft)
02.03.2021 00:50 -1,6 C 5,9 C -0,5 C -1,2 C -1,2 C 0,4 C 89 % 93 % 1036,1 hPa 0,0 l/m 0,0 km/h (0 Bft) S 180 0 min -3,2 C -1,2 C 0,0 km/h (0 Bft)
02.03.2021 00:55 -1,6 C 5,9 C -0,5 C -1,3 C -1,3 C 0,3 C 89 % 93 % 1036,1 hPa 0,0 l/m 0,0 km/h (0 Bft) S 180 0 min -3,2 C -1,3 C 0,0 km/h (0 Bft)
02.03.2021 01:00 -1,7 C 5,9 C -0,6 C -1,3 C -1,3 C 0,4 C 89 % 93 % 1036,1 hPa 0,0 l/m 0,0 km/h (0 Bft) S 180 0 min -3,3 C -1,3 C 0,0 km/h (0 Bft)
02.03.2021 01:05 -1,7 C 5,9 C -0,7 C -1,4 C -1,4 C 0,3 C 89 % 93 % 1036,1 hPa 0,0 l/m 0,0 km/h (0 Bft) S 180 0 min -3,3 C -1,4 C 0,0 km/h (0 Bft)
02.03.2021 01:10 -1,7 C 5,9 C -0,8 C -1,4 C -1,4 C 0,3 C 89 % 93 % 1036,1 hPa 0,0 l/m 0,0 km/h (0 Bft) S 180 0 min -3,3 C -1,4 C 0,0 km/h (0 Bft)
02.03.2021 01:15 -1,7 C 5,9 C -0,7 C -1,4 C -1,4 C 0,3 C 89 % 93 % 1036,1 hPa 0,0 l/m 0,0 km/h (0 Bft) S 180 0 min -3,3 C -1,4 C 0,0 km/h (0 Bft)
02.03.2021 01:20 -1,7 C 5,9 C -0,7 C -1,3 C -1,3 C 0,4 C 89 % 93 % 1036,1 hPa 0,0 l/m 0,0 km/h (0 Bft) S 180 0 min -3,3 C -1,3 C 0,0 km/h (0 Bft)
02.03.2021 01:25 -1,7 C 5,9 C -0,7 C -1,3 C -1,3 C 0,4 C 89 % 93 % 1036,1 hPa 0,0 l/m 0,0 km/h (0 Bft) S 180 0 min -3,3 C -1,3 C 0,0 km/h (0 Bft)
02.03.2021 01:30 -1,7 C 5,9 C -0,7 C -1,3 C -1,3 C 0,4 C 89 % 93 % 1036,4 hPa 0,0 l/m 0,0 km/h (0 Bft) S 180 0 min -3,3 C -1,3 C 0,0 km/h (0 Bft)
02.03.2021 01:35 -1,7 C 5,9 C -0,7 C -1,2 C -1,2 C 0,5 C 89 % 93 % 1036,4 hPa 0,0 l/m 0,0 km/h (0 Bft) S 180 0 min -3,3 C -1,2 C 0,0 km/h (0 Bft)
02.03.2021 01:40 -1,9 C 5,8 C -0,7 C -1,2 C -1,2 C 0,7 C 89 % 93 % 1036,4 hPa 0,0 l/m 0,0 km/h (0 Bft) S 180 0 min -3,5 C -1,2 C 0,0 km/h (0 Bft)
02.03.2021 01:45 -1,9 C 5,8 C -0,7 C -1,2 C -1,2 C 0,7 C 89 % 93 % 1036,4 hPa 0,0 l/m 0,0 km/h (0 Bft) S 180 0 min -3,5 C -1,2 C 0,0 km/h (0 Bft)
02.03.2021 01:50 -1,9 C 5,8 C -0,7 C -1,2 C -1,2 C 0,7 C 89 % 93 % 1036,2 hPa 0,0 l/m 0,0 km/h (0 Bft) S 180 0 min -3,5 C -1,2 C 0,0 km/h (0 Bft)
02.03.2021 01:55 -1,9 C 5,8 C -0,7 C -1,2 C -1,2 C 0,7 C 89 % 93 % 1036,2 hPa 0,0 l/m 0,0 km/h (0 Bft) S 180 0 min -3,5 C -1,2 C 0,0 km/h (0 Bft)
02.03.2021 02:00 -1,9 C 5,8 C -0,6 C -1,2 C -1,2 C 0,7 C 89 % 93 % 1036,2 hPa 0,0 l/m 0,0 km/h (0 Bft) S 180 0 min -3,5 C -1,2 C 0,0 km/h (0 Bft)
02.03.2021 02:05 -1,9 C 5,8 C -0,7 C -1,2 C -1,2 C 0,7 C 89 % 93 % 1036,2 hPa 0,0 l/m 0,0 km/h (0 Bft) S 180 0 min -3,5 C -1,2 C 0,0 km/h (0 Bft)
02.03.2021 02:11 -1,9 C 5,8 C -0,7 C -1,1 C -1,1 C 0,8 C 89 % 93 % 1035,9 hPa 0,0 l/m 0,0 km/h (0 Bft) N 0 0 min -3,5 C -1,1 C 0,0 km/h (0 Bft)
02.03.2021 02:27 -1,9 C 5,8 C -0,5 C -1,1 C -1,1 C 0,8 C 89 % 93 % 1035,9 hPa 0,0 l/m 0,2 km/h (0 Bft) S-SW 202 0 min -3,5 C -1,1 C 1,9 km/h (1 Bft)
02.03.2021 02:38 -1,9 C 5,8 C -0,6 C -1,1 C -1,1 C 0,8 C 89 % 93 % 1035,9 hPa 0,0 l/m 0,8 km/h (0 Bft) S 180 0 min -3,5 C -1,1 C 2,9 km/h (1 Bft)
02.03.2021 02:40 -1,9 C 5,8 C -0,6 C -1,1 C -1,1 C 0,8 C 89 % 93 % 1035,9 hPa 0,0 l/m 0,8 km/h (0 Bft) S 180 0 min -3,5 C -1,1 C 1,8 km/h (1 Bft)
02.03.2021 02:45 -1,9 C 5,8 C -0,6 C -1,1 C -1,1 C 0,8 C 89 % 93 % 1035,9 hPa 0,0 l/m 0,8 km/h (0 Bft) S-SW 202 0 min -3,5 C -1,1 C 0,0 km/h (0 Bft)
02.03.2021 02:50 -1,9 C 5,8 C -0,6 C -1,1 C -1,1 C 0,8 C 89 % 93 % 1035,9 hPa 0,0 l/m 0,3 km/h (0 Bft) S 180 0 min -3,5 C -1,1 C 0,0 km/h (0 Bft)
02.03.2021 02:55 -1,9 C 5,8 C -0,6 C -1,1 C -1,1 C 0,8 C 89 % 93 % 1035,9 hPa 0,0 l/m 0,3 km/h (0 Bft) S 180 0 min -3,5 C -1,1 C 0,0 km/h (0 Bft)
02.03.2021 03:00 -1,9 C 5,8 C -0,7 C -1,1 C -1,1 C 0,8 C 89 % 93 % 1035,9 hPa 0,0 l/m 0,6 km/h (0 Bft) S 180 0 min -3,5 C -1,1 C 3,4 km/h (1 Bft)
02.03.2021 03:05 -1,9 C 5,7 C -0,7 C -1,1 C -1,1 C 0,8 C 89 % 93 % 1035,9 hPa 0,0 l/m 0,8 km/h (0 Bft) S-SW 202 0 min -3,5 C -1,1 C 0,0 km/h (0 Bft)
02.03.2021 03:10 -1,9 C 5,7 C -0,6 C -1,2 C -1,2 C 0,7 C 89 % 93 % 1035,6 hPa 0,0 l/m 0,5 km/h (0 Bft) S 180 0 min -3,5 C -1,2 C 0,0 km/h (0 Bft)
02.03.2021 03:15 -1,9 C 5,7 C -0,6 C -1,1 C -1,1 C 0,8 C 89 % 93 % 1035,6 hPa 0,0 l/m 0,2 km/h (0 Bft) S 180 0 min -3,5 C -1,1 C 0,0 km/h (0 Bft)
02.03.2021 03:20 -1,9 C 5,7 C -0,6 C -1,1 C -1,1 C 0,8 C 89 % 93 % 1035,6 hPa 0,0 l/m 0,2 km/h (0 Bft) S 180 0 min -3,5 C -1,1 C 0,0 km/h (0 Bft)
02.03.2021 03:25 -1,9 C 5,7 C -0,6 C -1,1 C -1,1 C 0,8 C 89 % 93 % 1035,6 hPa 0,0 l/m 0,2 km/h (0 Bft) S 180 0 min -3,5 C -1,1 C 0,0 km/h (0 Bft)
02.03.2021 03:30 -1,9 C 5,7 C -0,6 C -1,1 C -1,1 C 0,8 C 89 % 93 % 1035,4 hPa 0,0 l/m 0,2 km/h (0 Bft) S-SW 202 0 min -3,5 C -1,1 C 1,9 km/h (1 Bft)
02.03.2021 03:35 -1,9 C 5,7 C -0,6 C -1,1 C -1,1 C 0,8 C 89 % 93 % 1035,4 hPa 0,0 l/m 0,6 km/h (0 Bft) S 180 0 min -3,5 C -1,1 C 2,9 km/h (1 Bft)
02.03.2021 03:40 -2,0 C 5,7 C -0,6 C -1,2 C -1,2 C 0,8 C 89 % 93 % 1035,4 hPa 0,0 l/m 1,3 km/h (1 Bft) S-SW 202 0 min -3,6 C -1,2 C 2,1 km/h (1 Bft)
02.03.2021 03:45 -2,0 C 5,7 C -0,6 C -1,2 C -1,2 C 0,8 C 89 % 93 % 1035,4 hPa 0,0 l/m 1,0 km/h (0 Bft) S-SW 202 0 min -3,6 C -1,2 C 0,0 km/h (0 Bft)
02.03.2021 03:50 -2,0 C 5,7 C -0,6 C -1,2 C -1,2 C 0,8 C 89 % 93 % 1035,4 hPa 0,0 l/m 0,2 km/h (0 Bft) S-SW 202 0 min -3,6 C -1,2 C 0,0 km/h (0 Bft)
02.03.2021 03:55 -1,9 C 5,7 C -0,6 C -1,2 C -1,2 C 0,7 C 89 % 93 % 1035,4 hPa 0,0 l/m 0,0 km/h (0 Bft) S-SW 202 0 min -3,5 C -1,2 C 0,0 km/h (0 Bft)
02.03.2021 04:00 -2,0 C 5,7 C -0,6 C -1,1 C -1,1 C 0,9 C 89 % 93 % 1035,4 hPa 0,0 l/m 0,0 km/h (0 Bft) S-SW 202 0 min -3,6 C -1,1 C 0,0 km/h (0 Bft)
02.03.2021 04:05 -2,0 C 5,7 C -0,6 C -1,1 C -1,1 C 0,9 C 89 % 93 % 1035,4 hPa 0,0 l/m 0,0 km/h (0 Bft) S-SW 202 0 min -3,6 C -1,1 C 0,0 km/h (0 Bft)
02.03.2021 04:11 -1,9 C 5,7 C -0,6 C -1,1 C -1,1 C 0,8 C 89 % 93 % 1035,5 hPa 0,0 l/m 0,0 km/h (0 Bft) N 0 0 min -3,5 C -1,1 C 0,0 km/h (0 Bft)
02.03.2021 04:27 -2,1 C 5,7 C -0,8 C -1,3 C -1,3 C 0,8 C 89 % 93 % 1035,4 hPa 0,0 l/m 0,0 km/h (0 Bft) S 180 0 min -3,7 C -1,3 C 0,0 km/h (0 Bft)
02.03.2021 04:38 -2,1 C 5,6 C -0,8 C -1,3 C -1,3 C 0,8 C 89 % 93 % 1035,4 hPa 0,0 l/m 0,0 km/h (0 Bft) S 180 0 min -3,7 C -1,3 C 0,0 km/h (0 Bft)
02.03.2021 04:40 -2,1 C 5,6 C -0,8 C -1,3 C -1,3 C 0,8 C 89 % 93 % 1035,4 hPa 0,0 l/m 0,0 km/h (0 Bft) S 180 0 min -3,7 C -1,3 C 0,0 km/h (0 Bft)
02.03.2021 04:45 -2,2 C 5,6 C -0,8 C -1,3 C -1,3 C 0,9 C 89 % 93 % 1035,4 hPa 0,0 l/m 0,0 km/h (0 Bft) S 180 0 min -3,8 C -1,3 C 0,0 km/h (0 Bft)
02.03.2021 04:50 -2,2 C 5,6 C -0,9 C -1,4 C -1,4 C 0,8 C 89 % 93 % 1035,2 hPa 0,0 l/m 0,0 km/h (0 Bft) S 180 0 min -3,8 C -1,4 C 0,0 km/h (0 Bft)
02.03.2021 04:55 -2,1 C 5,6 C -0,9 C -1,4 C -1,4 C 0,7 C 89 % 93 % 1035,2 hPa 0,0 l/m 0,0 km/h (0 Bft) S 180 0 min -3,7 C -1,4 C 0,0 km/h (0 Bft)
02.03.2021 05:00 -2,3 C 5,6 C -0,9 C -1,5 C -1,5 C 0,8 C 89 % 93 % 1035,2 hPa 0,0 l/m 0,0 km/h (0 Bft) S 180 0 min -3,9 C -1,5 C 0,0 km/h (0 Bft)
02.03.2021 05:05 -2,3 C 5,6 C -0,9 C -1,5 C -1,5 C 0,8 C 89 % 93 % 1035,2 hPa 0,0 l/m 0,0 km/h (0 Bft) SW 225 0 min -3,9 C -1,5 C 0,0 km/h (0 Bft)
02.03.2021 05:10 -2,4 C 5,6 C -1,0 C -1,6 C -1,6 C 0,8 C 89 % 93 % 1035,2 hPa 0,0 l/m 0,0 km/h (0 Bft) SW 225 0 min -4,0 C -1,6 C 0,0 km/h (0 Bft)
02.03.2021 05:15 -2,4 C 5,6 C -1,0 C -1,6 C -1,6 C 0,8 C 89 % 93 % 1035,2 hPa 0,0 l/m 0,3 km/h (0 Bft) SW 225 0 min -4,0 C -1,6 C 2,4 km/h (1 Bft)
02.03.2021 05:20 -2,5 C 5,6 C -1,1 C -1,7 C -1,7 C 0,8 C 89 % 93 % 1035,2 hPa 0,0 l/m 1,0 km/h (0 Bft) SW 225 0 min -4,1 C -1,7 C 0,0 km/h (0 Bft)
02.03.2021 05:25 -2,5 C 5,6 C -1,1 C -1,7 C -1,7 C 0,8 C 89 % 93 % 1035,2 hPa 0,0 l/m 1,1 km/h (1 Bft) S-SW 202 0 min -4,1 C -1,7 C 1,9 km/h (1 Bft)
02.03.2021 05:30 -2,5 C 5,6 C -1,2 C -1,8 C -1,8 C 0,7 C 89 % 93 % 1035,7 hPa 0,0 l/m 0,6 km/h (0 Bft) SW 225 0 min -4,1 C -1,8 C 2,1 km/h (1 Bft)
02.03.2021 05:35 -2,5 C 5,6 C -1,2 C -1,9 C -1,9 C 0,6 C 89 % 93 % 1035,7 hPa 0,0 l/m 0,8 km/h (0 Bft) S-SW 202 0 min -4,1 C -1,9 C 0,0 km/h (0 Bft)
02.03.2021 05:40 -2,7 C 5,6 C -1,3 C -1,9 C -1,9 C 0,8 C 89 % 93 % 1035,7 hPa 0,0 l/m 0,6 km/h (0 Bft) SW 225 0 min -4,3 C -1,9 C 0,0 km/h (0 Bft)
02.03.2021 05:45 -2,7 C 5,6 C -1,3 C -2,0 C -2,0 C 0,7 C 89 % 93 % 1035,7 hPa 0,0 l/m 0,2 km/h (0 Bft) S-SW 202 0 min -4,3 C -2,0 C 1,6 km/h (1 Bft)
02.03.2021 05:50 -2,7 C 5,6 C -1,3 C -2,0 C -2,0 C 0,7 C 89 % 93 % 1035,1 hPa 0,0 l/m 0,2 km/h (0 Bft) S-SW 202 0 min -4,3 C -2,0 C 0,0 km/h (0 Bft)
02.03.2021 05:55 -2,7 C 5,6 C -1,3 C -2,0 C -2,0 C 0,7 C 89 % 93 % 1035,1 hPa 0,0 l/m 0,2 km/h (0 Bft) S-SW 202 0 min -4,3 C -2,0 C 0,0 km/h (0 Bft)
02.03.2021 06:00 -2,8 C 5,5 C -1,3 C -2,0 C -2,0 C 0,8 C 89 % 93 % 1035,1 hPa 0,0 l/m 0,0 km/h (0 Bft) S-SW 202 0 min -4,4 C -2,0 C 0,0 km/h (0 Bft)
02.03.2021 06:05 -2,8 C 5,5 C -1,3 C -2,0 C -2,0 C 0,8 C 89 % 93 % 1035,1 hPa 0,0 l/m 0,0 km/h (0 Bft) S-SW 202 0 min -4,4 C -2,0 C 0,0 km/h (0 Bft)
02.03.2021 06:11 -2,8 C 5,5 C -1,3 C -2,1 C -2,1 C 0,7 C 89 % 93 % 1035,6 hPa 0,0 l/m 0,0 km/h (0 Bft) N 0 0 min -4,4 C -2,1 C 0,0 km/h (0 Bft)
02.03.2021 06:27 -2,9 C 5,5 C -1,4 C -2,2 C -2,2 C 0,7 C 89 % 93 % 1035,7 hPa 0,0 l/m 0,0 km/h (0 Bft) SW 225 0 min -4,5 C -2,2 C 0,0 km/h (0 Bft)
02.03.2021 06:38 -2,9 C 5,5 C -1,4 C -2,2 C -2,2 C 0,7 C 89 % 93 % 1035,7 hPa 0,0 l/m 0,0 km/h (0 Bft) SW 225 0 min -4,5 C -2,2 C 0,0 km/h (0 Bft)
02.03.2021 06:40 -2,9 C 5,5 C -1,4 C -2,2 C -2,2 C 0,7 C 89 % 93 % 1035,7 hPa 0,0 l/m 0,0 km/h (0 Bft) SW 225 0 min -4,5 C -2,2 C 0,0 km/h (0 Bft)
02.03.2021 06:45 -2,9 C 5,5 C -1,4 C -2,2 C -2,2 C 0,7 C 89 % 93 % 1035,7 hPa 0,0 l/m 0,0 km/h (0 Bft) SW 225 0 min -4,5 C -2,2 C 0,0 km/h (0 Bft)
02.03.2021 06:50 -2,9 C 5,5 C -1,4 C -2,1 C -2,1 C 0,8 C 89 % 93 % 1035,9 hPa 0,0 l/m 0,0 km/h (0 Bft) SW 225 0 min -4,5 C -2,1 C 0,0 km/h (0 Bft)
02.03.2021 06:55 -2,9 C 5,5 C -1,4 C -2,1 C -2,1 C 0,8 C 89 % 93 % 1035,9 hPa 0,0 l/m 0,0 km/h (0 Bft) SW 225 0 min -4,5 C -2,1 C 0,0 km/h (0 Bft)
02.03.2021 07:00 -2,9 C 5,5 C -1,3 C -2,1 C -2,1 C 0,8 C 89 % 93 % 1035,9 hPa 0,0 l/m 0,0 km/h (0 Bft) SW 225 0 min -4,5 C -2,1 C 0,0 km/h (0 Bft)
02.03.2021 07:05 -3,0 C 5,5 C -1,3 C -2,1 C -2,1 C 0,9 C 89 % 93 % 1035,9 hPa 0,0 l/m 0,0 km/h (0 Bft) SW 225 5 min -4,6 C -2,1 C 0,0 km/h (0 Bft)
02.03.2021 07:10 -2,9 C 5,5 C -1,3 C -2,1 C -2,1 C 0,8 C 89 % 93 % 1035,7 hPa 0,0 l/m 0,0 km/h (0 Bft) SW 225 5 min -4,5 C -2,1 C 0,0 km/h (0 Bft)
02.03.2021 07:15 -3,1 C 5,5 C -1,4 C -2,1 C -2,1 C 1,0 C 89 % 93 % 1035,7 hPa 0,0 l/m 0,0 km/h (0 Bft) SW 225 5 min -4,6 C -2,1 C 0,0 km/h (0 Bft)
02.03.2021 07:20 -2,9 C 5,5 C -1,3 C -2,1 C -2,1 C 0,8 C 89 % 93 % 1035,7 hPa 0,0 l/m 0,0 km/h (0 Bft) SW 225 5 min -4,5 C -2,1 C 0,0 km/h (0 Bft)
02.03.2021 07:25 -3,1 C 5,5 C -1,3 C -2,0 C -2,0 C 1,1 C 89 % 93 % 1035,7 hPa 0,0 l/m 0,0 km/h (0 Bft) S-SW 202 5 min -4,6 C -2,0 C 0,0 km/h (0 Bft)
02.03.2021 07:30 -3,1 C 5,4 C -1,4 C -2,0 C -2,0 C 1,1 C 89 % 93 % 1035,6 hPa 0,0 l/m 0,0 km/h (0 Bft) S-SW 202 5 min -4,6 C -2,0 C 0,0 km/h (0 Bft)
02.03.2021 07:35 -3,1 C 5,4 C -1,3 C -2,0 C -2,0 C 1,1 C 89 % 93 % 1035,6 hPa 0,0 l/m 0,2 km/h (0 Bft) SW 225 5 min -4,6 C -2,0 C 0,0 km/h (0 Bft)
02.03.2021 07:40 -3,2 C 5,4 C -1,3 C -2,1 C -2,1 C 1,1 C 89 % 93 % 1035,6 hPa 0,0 l/m 0,2 km/h (0 Bft) SW 225 0 min -4,7 C -2,1 C 0,0 km/h (0 Bft)
02.03.2021 07:45 -3,2 C 5,4 C -1,3 C -2,1 C -2,1 C 1,1 C 89 % 93 % 1035,6 hPa 0,0 l/m 0,2 km/h (0 Bft) SW 225 0 min -4,7 C -2,1 C 0,0 km/h (0 Bft)
02.03.2021 07:50 -3,2 C 5,4 C -1,3 C -1,9 C -1,9 C 1,3 C 89 % 93 % 1035,9 hPa 0,0 l/m 0,0 km/h (0 Bft) S 180 0 min -4,7 C -1,9 C 1,9 km/h (1 Bft)
02.03.2021 07:55 -3,2 C 5,4 C -1,3 C -1,9 C -1,9 C 1,3 C 89 % 93 % 1035,9 hPa 0,0 l/m 0,5 km/h (0 Bft) S 180 0 min -4,7 C -1,9 C 2,6 km/h (1 Bft)
02.03.2021 08:00 -3,3 C 5,4 C -1,3 C -1,9 C -1,9 C 1,4 C 89 % 93 % 1035,9 hPa 0,0 l/m 0,8 km/h (0 Bft) S 180 0 min -4,8 C -1,9 C 1,8 km/h (1 Bft)
02.03.2021 08:05 -3,3 C 5,4 C -1,3 C -1,9 C -1,9 C 1,4 C 89 % 93 % 1035,9 hPa 0,0 l/m 0,5 km/h (0 Bft) S 180 0 min -4,8 C -1,9 C 0,0 km/h (0 Bft)
02.03.2021 08:11 -3,3 C 5,4 C -1,4 C -1,9 C -1,9 C 1,4 C 89 % 93 % 1035,8 hPa 0,0 l/m 0,2 km/h (0 Bft) N 0 0 min -4,8 C -1,9 C 0,0 km/h (0 Bft)
02.03.2021 08:27 -3,1 C 5,4 C -1,1 C -1,5 C -1,5 C 1,6 C 89 % 94 % 1035,9 hPa 0,0 l/m 0,0 km/h (0 Bft) S 180 0 min -4,6 C -1,5 C 0,0 km/h (0 Bft)
02.03.2021 08:38 -3,1 C 5,4 C -0,7 C -0,7 C -0,7 C 2,4 C 89 % 93 % 1035,9 hPa 0,0 l/m 0,3 km/h (0 Bft) S 180 0 min -4,6 C -0,7 C 2,7 km/h (1 Bft)
02.03.2021 08:40 -3,1 C 5,4 C -0,7 C -0,7 C -0,7 C 2,4 C 89 % 93 % 1035,9 hPa 0,0 l/m 0,3 km/h (0 Bft) S 180 0 min -4,6 C -0,7 C 2,7 km/h (1 Bft)
02.03.2021 08:45 -3,1 C 5,4 C -0,6 C -0,4 C -0,4 C 2,7 C 89 % 93 % 1035,9 hPa 0,0 l/m 0,3 km/h (0 Bft) S 180 5 min -4,6 C -0,4 C 0,0 km/h (0 Bft)
02.03.2021 08:50 -3,1 C 5,4 C -0,5 C -0,3 C -0,3 C 2,8 C 89 % 93 % 1035,8 hPa 0,0 l/m 1,6 km/h (1 Bft) S 180 5 min -4,6 C -0,3 C 6,6 km/h (2 Bft)
02.03.2021 08:55 -3,1 C 5,4 C -0,5 C -0,6 C -0,6 C 2,5 C 89 % 93 % 1035,8 hPa 0,0 l/m 2,6 km/h (1 Bft) S-SO 157 0 min -4,6 C -0,6 C 6,4 km/h (2 Bft)
02.03.2021 09:00 -3,1 C 5,4 C -0,5 C -0,9 C -0,9 C 2,2 C 89 % 93 % 1035,8 hPa 0,0 l/m 2,6 km/h (1 Bft) S 180 0 min -4,6 C -0,9 C 2,6 km/h (1 Bft)
02.03.2021 09:05 -2,9 C 5,4 C -0,4 C -0,6 C -0,6 C 2,3 C 89 % 93 % 1035,8 hPa 0,0 l/m 1,6 km/h (1 Bft) S 180 0 min -4,5 C -0,6 C 2,1 km/h (1 Bft)
02.03.2021 09:10 -2,9 C 5,4 C -0,3 C -0,3 C -0,3 C 2,6 C 89 % 93 % 1036,1 hPa 0,0 l/m 1,1 km/h (1 Bft) SO 135 0 min -4,5 C -0,3 C 2,1 km/h (1 Bft)
02.03.2021 09:15 -2,9 C 5,4 C -0,2 C -0,3 C -0,3 C 2,6 C 89 % 93 % 1036,1 hPa 0,0 l/m 1,4 km/h (1 Bft) SO 135 0 min -4,5 C -0,3 C 1,8 km/h (1 Bft)
02.03.2021 09:20 -2,8 C 5,4 C 0,0 C 0,1 C 0,1 C 2,9 C 89 % 93 % 1036,1 hPa 0,0 l/m 1,0 km/h (0 Bft) S 180 0 min -4,4 C 0,1 C 0,0 km/h (0 Bft)
02.03.2021 09:25 -2,7 C 5,3 C 0,1 C 0,4 C 0,4 C 3,1 C 89 % 93 % 1036,1 hPa 0,0 l/m 0,5 km/h (0 Bft) S 180 0 min -4,3 C 0,4 C 2,1 km/h (1 Bft)
02.03.2021 09:30 -2,5 C 5,3 C 0,3 C 0,6 C 0,6 C 3,1 C 89 % 93 % 1036,3 hPa 0,0 l/m 0,2 km/h (0 Bft) SW 225 0 min -4,1 C 0,6 C 0,0 km/h (0 Bft)
02.03.2021 09:35 -2,4 C 5,3 C 0,3 C 0,9 C 0,9 C 3,3 C 89 % 93 % 1036,3 hPa 0,0 l/m 0,3 km/h (0 Bft) SW 225 5 min -4,0 C 0,9 C 1,9 km/h (1 Bft)
02.03.2021 09:40 -2,3 C 5,3 C 0,5 C 1,0 C 1,0 C 3,3 C 89 % 93 % 1036,3 hPa 0,0 l/m 0,3 km/h (0 Bft) SW 225 5 min -3,9 C 1,0 C 0,0 km/h (0 Bft)
02.03.2021 09:45 -2,1 C 5,3 C 0,5 C 1,1 C 1,1 C 3,2 C 89 % 93 % 1036,3 hPa 0,0 l/m 0,3 km/h (0 Bft) SW 225 0 min -3,7 C 1,1 C 0,0 km/h (0 Bft)
02.03.2021 09:50 -2,1 C 5,3 C 0,6 C 1,3 C 1,3 C 3,4 C 89 % 93 % 1036,3 hPa 0,0 l/m 0,2 km/h (0 Bft) SW 225 5 min -3,7 C 1,3 C 0,0 km/h (0 Bft)
02.03.2021 09:55 -1,9 C 5,3 C 0,9 C 1,8 C 1,8 C 3,7 C 89 % 93 % 1036,3 hPa 0,0 l/m 0,0 km/h (0 Bft) SW 225 5 min -3,5 C 1,8 C 1,6 km/h (1 Bft)
02.03.2021 10:00 -1,8 C 5,3 C 1,1 C 2,4 C 2,4 C 4,2 C 89 % 93 % 1036,3 hPa 0,0 l/m 0,2 km/h (0 Bft) SW 225 5 min -3,4 C 2,4 C 0,0 km/h (0 Bft)
02.03.2021 10:05 -1,6 C 5,3 C 1,1 C 2,8 C 2,8 C 4,4 C 90 % 93 % 1036,3 hPa 0,0 l/m 0,2 km/h (0 Bft) SW 225 5 min -3,0 C 2,8 C 0,0 km/h (0 Bft)
02.03.2021 10:11 -1,1 C 5,3 C 1,3 C 3,4 C 3,4 C 4,5 C 89 % 94 % 1036,2 hPa 0,0 l/m 0,0 km/h (0 Bft) N 0 6 min -2,7 C 3,4 C 0,0 km/h (0 Bft)
02.03.2021 10:27 -0,7 C 5,4 C 1,4 C 3,0 C 3,0 C 3,7 C 89 % 93 % 1035,9 hPa 0,0 l/m 0,0 km/h (0 Bft) SW 225 16 min -2,3 C 3,0 C 0,0 km/h (0 Bft)
02.03.2021 10:38 -0,3 C 5,3 C 1,5 C 4,4 C 4,4 C 4,7 C 89 % 93 % 1035,9 hPa 0,0 l/m 0,2 km/h (0 Bft) SW 225 11 min -1,9 C 4,4 C 0,0 km/h (0 Bft)
02.03.2021 10:40 -0,3 C 5,3 C 1,5 C 4,4 C 4,4 C 4,7 C 89 % 93 % 1035,9 hPa 0,0 l/m 0,2 km/h (0 Bft) SW 225 2 min -1,9 C 4,4 C 0,0 km/h (0 Bft)
02.03.2021 10:45 -0,3 C 5,3 C 1,5 C 4,8 C 4,8 C 5,1 C 89 % 93 % 1035,9 hPa 0,0 l/m 0,5 km/h (0 Bft) SW 225 5 min -1,9 C 4,8 C 1,6 km/h (1 Bft)
02.03.2021 10:50 0,0 C 5,3 C 1,7 C 5,4 C 5,4 C 5,4 C 89 % 93 % 1035,9 hPa 0,0 l/m 0,6 km/h (0 Bft) SW 225 5 min -1,6 C 5,4 C 1,8 km/h (1 Bft)
02.03.2021 10:55 0,2 C 5,3 C 1,8 C 5,6 C 5,6 C 5,4 C 89 % 93 % 1035,9 hPa 0,0 l/m 0,8 km/h (0 Bft) S-SW 202 5 min -1,4 C 5,6 C 2,3 km/h (1 Bft)
02.03.2021 11:00 0,7 C 5,3 C 2,0 C 5,5 C 5,5 C 4,8 C 89 % 93 % 1035,9 hPa 0,0 l/m 0,5 km/h (0 Bft) W-SW 247 5 min -0,9 C 5,5 C 0,0 km/h (0 Bft)
02.03.2021 11:05 1,1 C 5,3 C 2,2 C 5,7 C 5,7 C 4,6 C 90 % 93 % 1035,9 hPa 0,0 l/m 0,3 km/h (0 Bft) S-SW 202 5 min -0,4 C 5,7 C 0,0 km/h (0 Bft)
02.03.2021 11:10 1,5 C 5,3 C 2,5 C 7,1 C 7,1 C 5,6 C 90 % 93 % 1035,4 hPa 0,0 l/m 0,0 km/h (0 Bft) S-SW 202 5 min 0,0 C 7,1 C 0,0 km/h (0 Bft)
02.03.2021 11:15 1,8 C 5,3 C 2,7 C 8,7 C 8,7 C 6,9 C 90 % 93 % 1035,4 hPa 0,0 l/m 0,3 km/h (0 Bft) S-SW 202 5 min 0,3 C 8,7 C 1,9 km/h (1 Bft)
02.03.2021 11:20 2,3 C 5,3 C 3,0 C 10,0 C 10,0 C 7,7 C 90 % 93 % 1035,4 hPa 0,0 l/m 0,8 km/h (0 Bft) SW 225 5 min 0,8 C 10,0 C 0,0 km/h (0 Bft)
02.03.2021 11:25 2,4 C 5,3 C 3,2 C 10,7 C 10,7 C 8,3 C 90 % 93 % 1035,4 hPa 0,0 l/m 0,8 km/h (0 Bft) W-SW 247 5 min 0,9 C 10,7 C 1,6 km/h (1 Bft)
02.03.2021 11:30 2,8 C 5,3 C 3,8 C 10,8 C 10,8 C 8,0 C 90 % 93 % 1035,9 hPa 0,0 l/m 0,6 km/h (0 Bft) W-SW 247 5 min 1,3 C 10,8 C 0,0 km/h (0 Bft)
02.03.2021 11:35 3,1 C 5,2 C 3,9 C 10,9 C 10,9 C 7,8 C 90 % 93 % 1035,9 hPa 0,0 l/m 0,5 km/h (0 Bft) W-SW 247 5 min 1,6 C 10,9 C 0,0 km/h (0 Bft)
02.03.2021 11:40 3,6 C 5,2 C 4,1 C 11,4 C 11,4 C 7,8 C 90 % 93 % 1035,9 hPa 0,0 l/m 0,2 km/h (0 Bft) W-SW 247 5 min 2,1 C 11,4 C 0,0 km/h (0 Bft)
02.03.2021 11:45 3,9 C 5,2 C 4,4 C 11,2 C 11,2 C 7,3 C 90 % 92 % 1035,9 hPa 0,0 l/m 0,2 km/h (0 Bft) W-SW 247 5 min 2,4 C 11,2 C 0,0 km/h (0 Bft)
02.03.2021 11:50 4,0 C 5,2 C 4,9 C 11,6 C 11,6 C 7,6 C 90 % 93 % 1035,4 hPa 0,0 l/m 0,3 km/h (0 Bft) SW 225 5 min 2,5 C 11,6 C 2,3 km/h (1 Bft)
02.03.2021 11:55 4,3 C 5,2 C 5,1 C 12,4 C 12,4 C 8,1 C 90 % 93 % 1035,4 hPa 0,0 l/m 0,5 km/h (0 Bft) S-SW 202 5 min 2,8 C 12,4 C 1,8 km/h (1 Bft)
02.03.2021 12:00 4,7 C 5,2 C 5,5 C 14,0 C 14,0 C 9,3 C 90 % 93 % 1035,4 hPa 0,0 l/m 0,6 km/h (0 Bft) W-SW 247 5 min 3,2 C 14,0 C 2,1 km/h (1 Bft)
02.03.2021 12:05 4,9 C 5,1 C 5,8 C 14,9 C 14,9 C 10,0 C 90 % 93 % 1035,4 hPa 0,0 l/m 0,6 km/h (0 Bft) NW 315 5 min 3,4 C 14,9 C 0,0 km/h (0 Bft)
02.03.2021 12:11 4,9 C 5,1 C 5,8 C 14,9 C 14,9 C 10,0 C 90 % 93 % 1035,3 hPa 0,0 l/m 0,6 km/h (0 Bft) N 0 6 min 3,4 C 14,9 C 0,0 km/h (0 Bft)
02.03.2021 12:27 7,1 C 5,0 C 6,7 C 18,4 C 18,4 C 11,3 C 90 % 93 % 1034,8 hPa 0,0 l/m 0,2 km/h (0 Bft) S-SW 202 16 min 5,6 C 18,4 C 0,0 km/h (0 Bft)
02.03.2021 12:38 7,6 C 5,1 C 7,2 C 18,2 C 18,2 C 10,6 C 88 % 93 % 1034,8 hPa 0,0 l/m 0,2 km/h (0 Bft) O-SO 112 11 min 5,7 C 18,2 C 0,0 km/h (0 Bft)
02.03.2021 12:40 7,6 C 5,1 C 7,2 C 18,2 C 18,2 C 10,6 C 88 % 93 % 1034,8 hPa 0,0 l/m 0,2 km/h (0 Bft) O-SO 112 2 min 5,7 C 18,2 C 0,0 km/h (0 Bft)
02.03.2021 12:45 7,9 C 5,1 C 7,5 C 18,4 C 18,4 C 10,5 C 89 % 93 % 1034,8 hPa 0,0 l/m 0,0 km/h (0 Bft) NW 315 5 min 6,2 C 18,4 C 0,0 km/h (0 Bft)
02.03.2021 12:50 8,2 C 5,1 C 7,7 C 18,5 C 18,5 C 10,3 C 88 % 93 % 1035,2 hPa 0,0 l/m 0,0 km/h (0 Bft) O-NO 67 5 min 6,3 C 18,5 C 0,0 km/h (0 Bft)
02.03.2021 12:55 8,5 C 5,1 C 7,9 C 18,3 C 18,3 C 9,8 C 88 % 93 % 1035,2 hPa 0,0 l/m 0,3 km/h (0 Bft) O-NO 67 5 min 6,6 C 18,3 C 2,1 km/h (1 Bft)
02.03.2021 13:00 8,8 C 5,1 C 8,2 C 18,4 C 18,4 C 9,6 C 88 % 93 % 1035,2 hPa 0,0 l/m 0,3 km/h (0 Bft) NW 315 5 min 6,9 C 18,4 C 0,0 km/h (0 Bft)
02.03.2021 13:05 9,3 C 5,1 C 8,3 C 18,6 C 18,6 C 9,3 C 88 % 93 % 1035,2 hPa 0,0 l/m 0,3 km/h (0 Bft) N 360 5 min 7,4 C 18,6 C 0,0 km/h (0 Bft)
02.03.2021 13:10 9,8 C 5,1 C 8,5 C 18,2 C 18,2 C 8,4 C 88 % 93 % 1034,7 hPa 0,0 l/m 0,5 km/h (0 Bft) NO 45 5 min 7,9 C 18,2 C 2,9 km/h (1 Bft)
02.03.2021 13:15 10,2 C 5,1 C 8,7 C 17,6 C 17,6 C 7,4 C 87 % 92 % 1034,7 hPa 0,0 l/m 1,0 km/h (0 Bft) NO 45 5 min 8,1 C 17,6 C 1,9 km/h (1 Bft)
02.03.2021 13:20 10,4 C 5,1 C 8,9 C 17,1 C 17,1 C 6,7 C 86 % 92 % 1034,7 hPa 0,0 l/m 1,1 km/h (1 Bft) O-NO 67 5 min 8,2 C 17,1 C 0,0 km/h (0 Bft)
02.03.2021 13:25 10,4 C 5,2 C 8,9 C 17,1 C 17,1 C 6,7 C 85 % 92 % 1034,7 hPa 0,0 l/m 0,6 km/h (0 Bft) NO 45 5 min 8,0 C 17,1 C 0,0 km/h (0 Bft)
02.03.2021 13:30 10,7 C 5,2 C 9,1 C 17,4 C 17,4 C 6,7 C 84 % 91 % 1034,5 hPa 0,0 l/m 0,3 km/h (0 Bft) O-NO 67 5 min 8,1 C 17,4 C 0,0 km/h (0 Bft)
02.03.2021 13:35 10,7 C 5,2 C 9,3 C 17,5 C 17,5 C 6,8 C 84 % 91 % 1034,5 hPa 0,0 l/m 0,2 km/h (0 Bft) O-NO 67 5 min 8,1 C 17,5 C 0,0 km/h (0 Bft)
02.03.2021 13:40 10,8 C 5,2 C 9,5 C 17,4 C 17,4 C 6,6 C 82 % 90 % 1034,5 hPa 0,0 l/m 0,5 km/h (0 Bft) O-NO 67 5 min 7,9 C 17,4 C 0,0 km/h (0 Bft)
02.03.2021 13:45 10,9 C 5,2 C 9,5 C 17,6 C 17,6 C 6,7 C 82 % 90 % 1034,5 hPa 0,0 l/m 0,6 km/h (0 Bft) O-NO 67 5 min 7,9 C 17,6 C 3,9 km/h (1 Bft)
02.03.2021 13:50 11,1 C 5,3 C 9,7 C 17,5 C 17,5 C 6,4 C 80 % 88 % 1034,2 hPa 0,0 l/m 0,8 km/h (0 Bft) NO 45 5 min 7,8 C 17,5 C 3,1 km/h (1 Bft)
02.03.2021 13:55 11,1 C 5,3 C 9,7 C 17,5 C 17,5 C 6,4 C 79 % 89 % 1034,2 hPa 0,0 l/m 1,0 km/h (0 Bft) N-NO 22 5 min 7,6 C 17,5 C 0,0 km/h (0 Bft)
02.03.2021 14:00 11,2 C 5,2 C 9,9 C 18,8 C 18,8 C 7,6 C 79 % 89 % 1034,2 hPa 0,0 l/m 0,5 km/h (0 Bft) N-NO 22 5 min 7,7 C 18,8 C 0,0 km/h (0 Bft)
02.03.2021 14:05 11,5 C 5,3 C 10,0 C 19,2 C 19,2 C 7,7 C 78 % 89 % 1034,2 hPa 0,0 l/m 0,0 km/h (0 Bft) W 270 5 min 7,8 C 19,2 C 0,0 km/h (0 Bft)
02.03.2021 14:11 11,6 C 5,4 C 10,1 C 19,8 C 19,8 C 8,2 C 77 % 89 % 1034,2 hPa 0,0 l/m 0,2 km/h (0 Bft) N 0 6 min 7,7 C 19,8 C 0,0 km/h (0 Bft)
02.03.2021 14:27 11,8 C 5,5 C 10,7 C 19,2 C 19,2 C 7,4 C 75 % 86 % 1034,1 hPa 0,0 l/m 0,3 km/h (0 Bft) N-NO 22 16 min 7,5 C 19,2 C 0,0 km/h (0 Bft)
02.03.2021 14:38 12,0 C 5,5 C 10,8 C 19,4 C 19,4 C 7,4 C 75 % 86 % 1034,1 hPa 0,0 l/m 0,2 km/h (0 Bft) N-NW 337 11 min 7,7 C 19,4 C 0,0 km/h (0 Bft)
02.03.2021 14:40 12,0 C 5,5 C 10,8 C 19,4 C 19,4 C 7,4 C 75 % 86 % 1034,1 hPa 0,0 l/m 0,2 km/h (0 Bft) N-NW 337 2 min 7,7 C 19,4 C 0,0 km/h (0 Bft)
02.03.2021 14:45 12,2 C 5,5 C 10,9 C 19,3 C 19,3 C 7,1 C 75 % 85 % 1034,1 hPa 0,0 l/m 0,3 km/h (0 Bft) N-NW 337 5 min 7,9 C 19,3 C 0,0 km/h (0 Bft)
02.03.2021 14:50 12,3 C 5,5 C 11,1 C 19,2 C 19,2 C 6,9 C 75 % 85 % 1034,1 hPa 0,0 l/m 0,2 km/h (0 Bft) N 360 5 min 8,0 C 19,2 C 0,0 km/h (0 Bft)
02.03.2021 14:55 12,5 C 5,6 C 11,1 C 19,3 C 19,3 C 6,8 C 75 % 85 % 1034,1 hPa 0,0 l/m 0,0 km/h (0 Bft) W-NW 292 5 min 8,2 C 19,3 C 0,0 km/h (0 Bft)
02.03.2021 15:00 12,6 C 5,6 C 11,5 C 19,2 C 19,2 C 6,6 C 75 % 85 % 1034,1 hPa 0,0 l/m 0,0 km/h (0 Bft) NW 315 5 min 8,3 C 19,2 C 0,0 km/h (0 Bft)
02.03.2021 15:05 12,6 C 5,6 C 11,5 C 19,2 C 19,2 C 6,6 C 74 % 84 % 1034,1 hPa 0,0 l/m 0,2 km/h (0 Bft) W-SW 247 5 min 8,1 C 19,2 C 0,0 km/h (0 Bft)
02.03.2021 15:10 12,9 C 5,7 C 11,5 C 19,5 C 19,5 C 6,6 C 74 % 83 % 1033,6 hPa 0,0 l/m 0,2 km/h (0 Bft) N 360 5 min 8,4 C 19,5 C 0,0 km/h (0 Bft)
02.03.2021 15:15 13,0 C 5,7 C 11,6 C 19,6 C 19,6 C 6,6 C 74 % 82 % 1033,6 hPa 0,0 l/m 0,3 km/h (0 Bft) NW 315 5 min 8,5 C 19,6 C 2,3 km/h (1 Bft)
02.03.2021 15:20 13,1 C 5,7 C 11,9 C 19,4 C 19,4 C 6,3 C 73 % 81 % 1033,6 hPa 0,0 l/m 0,3 km/h (0 Bft) NW 315 5 min 8,4 C 19,4 C 0,0 km/h (0 Bft)
02.03.2021 15:25 13,1 C 5,7 C 12,0 C 19,5 C 19,5 C 6,4 C 71 % 77 % 1033,6 hPa 0,0 l/m 0,3 km/h (0 Bft) NO 45 5 min 8,0 C 19,5 C 0,0 km/h (0 Bft)
02.03.2021 15:30 13,1 C 5,8 C 11,9 C 19,4 C 19,4 C 6,3 C 70 % 76 % 1033,9 hPa 0,0 l/m 0,2 km/h (0 Bft) N-NO 22 5 min 7,8 C 19,4 C 0,0 km/h (0 Bft)
02.03.2021 15:35 13,1 C 5,8 C 11,8 C 19,1 C 19,1 C 6,0 C 67 % 73 % 1033,9 hPa 0,0 l/m 0,6 km/h (0 Bft) O-NO 67 5 min 7,1 C 19,1 C 2,7 km/h (1 Bft)
02.03.2021 15:40 13,1 C 5,8 C 11,7 C 18,6 C 18,6 C 5,5 C 65 % 71 % 1033,9 hPa 0,0 l/m 0,8 km/h (0 Bft) NO 45 5 min 6,7 C 18,6 C 2,6 km/h (1 Bft)
02.03.2021 15:45 13,0 C 5,8 C 11,7 C 18,3 C 18,3 C 5,3 C 65 % 71 % 1033,9 hPa 0,0 l/m 1,0 km/h (0 Bft) NO 45 5 min 6,6 C 18,3 C 0,0 km/h (0 Bft)
02.03.2021 15:50 13,1 C 5,9 C 11,6 C 18,5 C 18,5 C 5,4 C 65 % 70 % 1033,5 hPa 0,0 l/m 0,6 km/h (0 Bft) NO 45 5 min 6,7 C 18,5 C 1,8 km/h (1 Bft)
02.03.2021 15:55 13,0 C 5,9 C 11,5 C 18,4 C 18,4 C 5,4 C 65 % 71 % 1033,5 hPa 0,0 l/m 0,2 km/h (0 Bft) NO 45 5 min 6,6 C 18,4 C 1,6 km/h (1 Bft)
02.03.2021 16:00 12,9 C 5,9 C 11,5 C 17,7 C 17,7 C 4,8 C 64 % 70 % 1033,5 hPa 0,0 l/m 0,2 km/h (0 Bft) NO 45 5 min 6,3 C 17,7 C 1,6 km/h (1 Bft)
02.03.2021 16:05 12,8 C 5,9 C 11,5 C 17,2 C 17,2 C 4,4 C 64 % 70 % 1033,5 hPa 0,0 l/m 0,2 km/h (0 Bft) O-NO 67 5 min 6,2 C 17,2 C 0,0 km/h (0 Bft)
02.03.2021 16:11 12,7 C 5,9 C 11,2 C 16,6 C 16,6 C 3,9 C 64 % 70 % 1033,6 hPa 0,0 l/m 0,3 km/h (0 Bft) N 0 6 min 6,1 C 16,6 C 0,0 km/h (0 Bft)
02.03.2021 16:26 12,7 C 6,0 C 11,1 C 15,9 C 15,9 C 3,2 C 65 % 70 % 1033,6 hPa 0,0 l/m 0,2 km/h (0 Bft) O-NO 67 15 min 6,3 C 15,9 C 0,0 km/h (0 Bft)
02.03.2021 16:38 12,3 C 6,0 C 10,9 C 14,4 C 14,4 C 2,1 C 65 % 71 % 1033,3 hPa 0,0 l/m 0,2 km/h (0 Bft) O-NO 67 12 min 5,9 C 14,4 C 0,0 km/h (0 Bft)
02.03.2021 16:40 12,3 C 6,0 C 10,9 C 14,4 C 14,4 C 2,1 C 65 % 71 % 1033,3 hPa 0,0 l/m 0,2 km/h (0 Bft) O-NO 67 2 min 5,9 C 14,4 C 0,0 km/h (0 Bft)
02.03.2021 16:45 12,2 C 6,0 C 10,8 C 14,3 C 14,3 C 2,1 C 65 % 72 % 1033,3 hPa 0,0 l/m 0,0 km/h (0 Bft) O-NO 67 5 min 5,8 C 14,3 C 0,0 km/h (0 Bft)
02.03.2021 16:50 12,2 C 6,1 C 10,6 C 13,7 C 13,7 C 1,5 C 66 % 72 % 1033,4 hPa 0,0 l/m 0,0 km/h (0 Bft) O-NO 67 5 min 6,0 C 13,7 C 0,0 km/h (0 Bft)
02.03.2021 16:55 12,0 C 6,1 C 10,5 C 13,4 C 13,4 C 1,4 C 66 % 72 % 1033,4 hPa 0,0 l/m 0,0 km/h (0 Bft) NO 45 5 min 5,8 C 13,4 C 0,0 km/h (0 Bft)
02.03.2021 17:00 11,9 C 6,1 C 10,5 C 13,0 C 13,0 C 1,1 C 67 % 72 % 1033,4 hPa 0,0 l/m 0,0 km/h (0 Bft) O-NO 67 0 min 6,0 C 13,0 C 0,0 km/h (0 Bft)
02.03.2021 17:05 11,9 C 6,1 C 10,4 C 12,9 C 12,9 C 1,0 C 67 % 72 % 1033,4 hPa 0,0 l/m 0,0 km/h (0 Bft) O-NO 67 0 min 6,0 C 12,9 C 0,0 km/h (0 Bft)
02.03.2021 17:10 11,6 C 6,1 C 10,3 C 12,5 C 12,5 C 0,9 C 67 % 73 % 1033,4 hPa 0,0 l/m 0,0 km/h (0 Bft) O-NO 67 0 min 5,7 C 12,5 C 0,0 km/h (0 Bft)
02.03.2021 17:15 11,5 C 6,1 C 10,3 C 12,2 C 12,2 C 0,7 C 68 % 73 % 1033,4 hPa 0,0 l/m 0,0 km/h (0 Bft) O-NO 67 0 min 5,8 C 12,2 C 0,0 km/h (0 Bft)
02.03.2021 17:20 11,4 C 6,3 C 9,7 C 12,3 C 12,3 C 0,9 C 68 % 74 % 1033,4 hPa 0,0 l/m 0,0 km/h (0 Bft) O-NO 67 5 min 5,7 C 12,3 C 0,0 km/h (0 Bft)
02.03.2021 17:25 11,2 C 6,3 C 9,5 C 12,1 C 12,1 C 0,9 C 68 % 75 % 1033,4 hPa 0,0 l/m 0,0 km/h (0 Bft) O-NO 67 5 min 5,5 C 12,1 C 0,0 km/h (0 Bft)
02.03.2021 17:30 10,9 C 6,3 C 9,3 C 11,8 C 11,8 C 0,9 C 69 % 76 % 1033,4 hPa 0,0 l/m 0,0 km/h (0 Bft) O-NO 67 5 min 5,4 C 11,8 C 0,0 km/h (0 Bft)
02.03.2021 17:35 10,9 C 6,3 C 9,2 C 11,5 C 11,5 C 0,6 C 70 % 76 % 1033,4 hPa 0,0 l/m 0,0 km/h (0 Bft) O-NO 67 5 min 5,6 C 11,5 C 0,0 km/h (0 Bft)
02.03.2021 17:40 10,7 C 6,3 C 8,9 C 10,9 C 10,9 C 0,2 C 70 % 77 % 1033,4 hPa 0,0 l/m 0,0 km/h (0 Bft) O-NO 67 5 min 5,5 C 10,9 C 0,0 km/h (0 Bft)
02.03.2021 17:45 10,4 C 6,3 C 8,5 C 10,4 C 10,3 C 0,0 C 70 % 77 % 1033,4 hPa 0,0 l/m 0,0 km/h (0 Bft) O-NO 67 0 min 5,2 C 10,3 C 0,0 km/h (0 Bft)
02.03.2021 17:50 10,1 C 6,3 C 8,1 C 9,9 C 9,5 C 0,0 C 70 % 78 % 1033,4 hPa 0,0 l/m 0,0 km/h (0 Bft) O-NO 67 0 min 4,9 C 9,5 C 0,0 km/h (0 Bft)
02.03.2021 17:55 9,9 C 6,3 C 7,9 C 9,6 C 9,0 C 0,0 C 71 % 78 % 1033,4 hPa 0,0 l/m 0,0 km/h (0 Bft) O-NO 67 0 min 4,9 C 9,0 C 0,0 km/h (0 Bft)
02.03.2021 18:00 9,6 C 6,3 C 7,4 C 9,2 C 8,3 C 0,0 C 71 % 79 % 1033,4 hPa 0,0 l/m 0,0 km/h (0 Bft) O-NO 67 0 min 4,6 C 8,3 C 0,0 km/h (0 Bft)
02.03.2021 18:05 9,3 C 6,3 C 7,2 C 8,8 C 7,9 C 0,0 C 71 % 79 % 1033,4 hPa 0,0 l/m 0,0 km/h (0 Bft) SW 225 0 min 4,3 C 7,9 C 0,0 km/h (0 Bft)
02.03.2021 18:11 8,8 C 6,4 C 6,5 C 8,3 C 7,2 C 0,0 C 73 % 81 % 1033,6 hPa 0,0 l/m 0,0 km/h (0 Bft) N 0 0 min 4,2 C 7,2 C 0,0 km/h (0 Bft)
02.03.2021 18:27 8,2 C 6,4 C 5,9 C 7,7 C 6,6 C 0,0 C 75 % 83 % 1033,4 hPa 0,0 l/m 0,0 km/h (0 Bft) O-NO 67 0 min 4,0 C 6,6 C 0,0 km/h (0 Bft)
02.03.2021 18:38 7,9 C 6,5 C 5,5 C 7,4 C 6,3 C 0,0 C 76 % 84 % 1033,4 hPa 0,0 l/m 0,0 km/h (0 Bft) O-NO 67 0 min 3,9 C 6,3 C 0,0 km/h (0 Bft)
02.03.2021 18:40 7,9 C 6,5 C 5,5 C 7,4 C 6,3 C 0,0 C 76 % 84 % 1033,4 hPa 0,0 l/m 0,0 km/h (0 Bft) O-NO 67 0 min 3,9 C 6,3 C 0,0 km/h (0 Bft)
02.03.2021 18:45 7,6 C 6,5 C 5,3 C 7,1 C 6,1 C 0,0 C 77 % 84 % 1033,4 hPa 0,0 l/m 0,0 km/h (0 Bft) O-NO 67 0 min 3,8 C 6,1 C 0,0 km/h (0 Bft)
02.03.2021 18:50 7,3 C 6,5 C 5,0 C 6,8 C 5,8 C 0,0 C 78 % 85 % 1033,6 hPa 0,0 l/m 0,0 km/h (0 Bft) O-NO 67 0 min 3,7 C 5,8 C 0,0 km/h (0 Bft)
02.03.2021 18:55 7,1 C 6,6 C 4,9 C 6,6 C 5,6 C 0,0 C 78 % 86 % 1033,6 hPa 0,0 l/m 0,0 km/h (0 Bft) O-NO 67 0 min 3,5 C 5,6 C 0,0 km/h (0 Bft)
02.03.2021 19:00 6,9 C 6,7 C 5,0 C 6,5 C 5,6 C 0,0 C 79 % 87 % 1033,6 hPa 0,0 l/m 0,0 km/h (0 Bft) O-NO 67 0 min 3,5 C 5,6 C 0,0 km/h (0 Bft)
02.03.2021 19:05 6,8 C 6,7 C 4,8 C 6,4 C 5,6 C 0,0 C 79 % 87 % 1033,6 hPa 0,0 l/m 0,0 km/h (0 Bft) O-NO 67 0 min 3,4 C 5,6 C 0,0 km/h (0 Bft)
02.03.2021 19:10 6,5 C 6,7 C 4,5 C 6,1 C 5,2 C 0,0 C 80 % 87 % 1033,2 hPa 0,0 l/m 0,0 km/h (0 Bft) O-NO 67 0 min 3,3 C 5,2 C 0,0 km/h (0 Bft)
02.03.2021 19:15 6,4 C 6,7 C 4,3 C 6,0 C 5,1 C 0,0 C 80 % 87 % 1033,2 hPa 0,0 l/m 0,0 km/h (0 Bft) O-NO 67 0 min 3,2 C 5,1 C 0,0 km/h (0 Bft)
02.03.2021 19:21 6,4 C 6,7 C 4,2 C 6,0 C 5,1 C 0,0 C 81 % 88 % 1033,2 hPa 0,0 l/m 0,0 km/h (0 Bft) O-NO 67 0 min 3,4 C 5,1 C 0,0 km/h (0 Bft)
02.03.2021 19:25 6,3 C 6,7 C 4,0 C 5,9 C 5,0 C 0,0 C 81 % 88 % 1033,2 hPa 0,0 l/m 0,0 km/h (0 Bft) O-NO 67 0 min 3,3 C 5,0 C 0,0 km/h (0 Bft)
02.03.2021 19:32 5,9 C 6,7 C 3,7 C 5,4 C 4,5 C 0,0 C 81 % 89 % 1032,8 hPa 0,0 l/m 0,0 km/h (0 Bft) O-NO 67 0 min 2,9 C 4,5 C 0,0 km/h (0 Bft)
02.03.2021 19:33 5,9 C 6,7 C 3,7 C 5,4 C 4,5 C 0,0 C 81 % 89 % 1032,8 hPa 0,0 l/m 0,0 km/h (0 Bft) O-NO 67 0 min 2,9 C 4,5 C 0,0 km/h (0 Bft)
02.03.2021 19:34 5,9 C 6,7 C 3,7 C 5,4 C 4,5 C 0,0 C 81 % 89 % 1032,8 hPa 0,0 l/m 0,0 km/h (0 Bft) O-NO 67 0 min 2,9 C 4,5 C 0,0 km/h (0 Bft)
02.03.2021 19:35 5,9 C 6,7 C 3,7 C 5,4 C 4,5 C 0,0 C 81 % 89 % 1032,8 hPa 0,0 l/m 0,0 km/h (0 Bft) O-NO 67 0 min 2,9 C 4,5 C 0,0 km/h (0 Bft)
02.03.2021 19:36 5,9 C 6,7 C 3,7 C 5,4 C 4,5 C 0,0 C 81 % 89 % 1032,8 hPa 0,0 l/m 0,0 km/h (0 Bft) O-NO 67 0 min 2,9 C 4,5 C 0,0 km/h (0 Bft)
02.03.2021 19:38 5,6 C 6,8 C 3,6 C 5,1 C 4,2 C 0,0 C 82 % 89 % 1032,8 hPa 0,0 l/m 0,0 km/h (0 Bft) O-NO 67 0 min 2,8 C 4,2 C 0,0 km/h (0 Bft)
02.03.2021 19:40 5,6 C 6,8 C 3,6 C 5,1 C 4,2 C 0,0 C 82 % 89 % 1032,8 hPa 0,0 l/m 0,0 km/h (0 Bft) O-NO 67 0 min 2,8 C 4,2 C 0,0 km/h (0 Bft)
02.03.2021 19:45 5,5 C 6,8 C 3,5 C 5,1 C 4,2 C 0,0 C 82 % 89 % 1032,8 hPa 0,0 l/m 0,0 km/h (0 Bft) O-NO 67 0 min 2,7 C 4,2 C 0,0 km/h (0 Bft)
02.03.2021 19:50 5,3 C 6,8 C 3,4 C 4,8 C 3,9 C 0,0 C 83 % 90 % 1033,1 hPa 0,0 l/m 0,0 km/h (0 Bft) O-NO 67 0 min 2,7 C 3,9 C 0,0 km/h (0 Bft)
02.03.2021 19:55 5,3 C 6,8 C 3,3 C 4,8 C 3,8 C 0,0 C 83 % 89 % 1033,1 hPa 0,0 l/m 0,0 km/h (0 Bft) O-NO 67 0 min 2,7 C 3,8 C 0,0 km/h (0 Bft)
02.03.2021 20:00 5,0 C 6,8 C 3,1 C 4,5 C 3,5 C 0,0 C 83 % 89 % 1033,1 hPa 0,0 l/m 0,0 km/h (0 Bft) O-NO 67 0 min 2,4 C 3,5 C 0,0 km/h (0 Bft)
02.03.2021 20:05 4,9 C 6,8 C 3,1 C 4,4 C 3,5 C 0,0 C 83 % 90 % 1033,1 hPa 0,0 l/m 0,0 km/h (0 Bft) O-NO 67 0 min 2,3 C 3,5 C 0,0 km/h (0 Bft)
02.03.2021 20:11 4,8 C 6,8 C 3,0 C 4,3 C 3,3 C 0,0 C 83 % 90 % 1033,7 hPa 0,0 l/m 0,0 km/h (0 Bft) N 0 0 min 2,2 C 3,3 C 0,0 km/h (0 Bft)
02.03.2021 20:27 3,9 C 6,9 C 2,3 C 3,3 C 2,1 C 0,0 C 84 % 90 % 1033,3 hPa 0,0 l/m 0,0 km/h (0 Bft) O-NO 67 0 min 1,4 C 2,1 C 0,0 km/h (0 Bft)
02.03.2021 20:38 3,5 C 6,9 C 1,9 C 2,9 C 1,6 C 0,0 C 84 % 90 % 1033,3 hPa 0,0 l/m 0,0 km/h (0 Bft) O-NO 67 0 min 1,1 C 1,6 C 0,0 km/h (0 Bft)
02.03.2021 20:40 3,5 C 6,9 C 1,9 C 2,9 C 1,6 C 0,0 C 84 % 90 % 1033,3 hPa 0,0 l/m 0,0 km/h (0 Bft) O-NO 67 0 min 1,1 C 1,6 C 0,0 km/h (0 Bft)
02.03.2021 20:45 3,5 C 6,9 C 1,8 C 2,8 C 1,5 C 0,0 C 84 % 90 % 1033,3 hPa 0,0 l/m 0,0 km/h (0 Bft) O-NO 67 0 min 1,1 C 1,5 C 0,0 km/h (0 Bft)
02.03.2021 20:50 3,3 C 6,9 C 1,7 C 2,7 C 1,5 C 0,0 C 84 % 90 % 1033,2 hPa 0,0 l/m 0,0 km/h (0 Bft) O-NO 67 0 min 0,9 C 1,5 C 0,0 km/h (0 Bft)
02.03.2021 20:55 3,2 C 6,9 C 1,6 C 2,6 C 1,4 C 0,0 C 85 % 91 % 1033,2 hPa 0,0 l/m 0,0 km/h (0 Bft) O-NO 67 0 min 0,9 C 1,4 C 0,0 km/h (0 Bft)
02.03.2021 21:00 3,1 C 6,9 C 1,5 C 2,5 C 1,2 C 0,0 C 85 % 91 % 1033,2 hPa 0,0 l/m 0,0 km/h (0 Bft) O-NO 67 0 min 0,8 C 1,2 C 0,0 km/h (0 Bft)
02.03.2021 21:05 2,9 C 6,9 C 1,5 C 2,3 C 1,0 C 0,0 C 84 % 91 % 1033,2 hPa 0,0 l/m 0,0 km/h (0 Bft) O-NO 67 0 min 0,5 C 1,0 C 0,0 km/h (0 Bft)
02.03.2021 21:10 2,8 C 6,9 C 1,3 C 2,2 C 0,9 C 0,0 C 84 % 91 % 1033,2 hPa 0,0 l/m 0,0 km/h (0 Bft) O-NO 67 0 min 0,4 C 0,9 C 0,0 km/h (0 Bft)
02.03.2021 21:15 2,7 C 6,9 C 1,3 C 2,1 C 0,8 C 0,0 C 85 % 91 % 1033,2 hPa 0,0 l/m 0,0 km/h (0 Bft) O-NO 67 0 min 0,4 C 0,8 C 0,0 km/h (0 Bft)
02.03.2021 21:20 2,4 C 6,9 C 1,1 C 1,8 C 0,6 C 0,0 C 85 % 91 % 1033,2 hPa 0,0 l/m 0,0 km/h (0 Bft) O-NO 67 0 min 0,1 C 0,6 C 0,0 km/h (0 Bft)
02.03.2021 21:25 2,3 C 6,9 C 1,1 C 1,7 C 0,5 C 0,0 C 85 % 91 % 1033,2 hPa 0,0 l/m 0,0 km/h (0 Bft) O-NO 67 0 min 0,0 C 0,5 C 0,0 km/h (0 Bft)
02.03.2021 21:30 2,3 C 6,9 C 1,1 C 1,7 C 0,4 C 0,0 C 85 % 91 % 1033,4 hPa 0,0 l/m 0,0 km/h (0 Bft) O-NO 67 0 min 0,0 C 0,4 C 0,0 km/h (0 Bft)
02.03.2021 21:35 2,1 C 6,8 C 0,9 C 1,5 C 0,2 C 0,0 C 85 % 92 % 1033,4 hPa 0,0 l/m 0,0 km/h (0 Bft) O-NO 67 0 min -0,2 C 0,2 C 0,0 km/h (0 Bft)
02.03.2021 21:40 2,0 C 6,9 C 0,8 C 1,4 C 0,3 C 0,0 C 85 % 91 % 1033,4 hPa 0,0 l/m 0,0 km/h (0 Bft) O-NO 67 0 min -0,3 C 0,3 C 0,0 km/h (0 Bft)
02.03.2021 21:45 2,0 C 6,8 C 0,8 C 1,5 C 0,5 C 0,0 C 85 % 91 % 1033,4 hPa 0,0 l/m 0,0 km/h (0 Bft) O-NO 67 0 min -0,3 C 0,5 C 0,0 km/h (0 Bft)
02.03.2021 21:50 1,9 C 6,8 C 0,8 C 1,5 C 0,6 C 0,0 C 86 % 91 % 1033,2 hPa 0,0 l/m 0,0 km/h (0 Bft) O-NO 67 0 min -0,2 C 0,6 C 0,0 km/h (0 Bft)
02.03.2021 21:55 1,9 C 6,8 C 0,7 C 1,4 C 0,4 C 0,0 C 86 % 91 % 1033,2 hPa 0,0 l/m 0,0 km/h (0 Bft) O-NO 67 0 min -0,2 C 0,4 C 0,0 km/h (0 Bft)
02.03.2021 22:00 1,8 C 6,8 C 0,7 C 1,3 C 0,2 C 0,0 C 86 % 91 % 1033,2 hPa 0,0 l/m 0,0 km/h (0 Bft) O-NO 67 0 min -0,3 C 0,2 C 0,0 km/h (0 Bft)
02.03.2021 22:05 1,7 C 6,8 C 0,6 C 1,2 C 0,2 C 0,0 C 86 % 92 % 1033,2 hPa 0,0 l/m 0,0 km/h (0 Bft) O-NO 67 0 min -0,4 C 0,2 C 0,0 km/h (0 Bft)
02.03.2021 22:11 1,6 C 6,8 C 0,5 C 1,1 C 0,1 C 0,0 C 86 % 92 % 1033,6 hPa 0,0 l/m 0,0 km/h (0 Bft) N 0 0 min -0,5 C 0,1 C 0,0 km/h (0 Bft)
02.03.2021 22:26 1,3 C 6,8 C 0,4 C 0,8 C -0,2 C 0,0 C 86 % 92 % 1033,6 hPa 0,0 l/m 0,0 km/h (0 Bft) O-NO 67 0 min -0,8 C -0,2 C 0,0 km/h (0 Bft)
02.03.2021 22:38 1,0 C 6,8 C 0,2 C 0,6 C -0,3 C 0,0 C 86 % 92 % 1033,6 hPa 0,0 l/m 0,0 km/h (0 Bft) O-NO 67 0 min -1,1 C -0,3 C 0,0 km/h (0 Bft)
02.03.2021 22:40 1,0 C 6,8 C 0,2 C 0,6 C -0,3 C 0,0 C 86 % 92 % 1033,6 hPa 0,0 l/m 0,0 km/h (0 Bft) O-NO 67 0 min -1,1 C -0,3 C 0,0 km/h (0 Bft)
02.03.2021 22:45 1,1 C 6,8 C 0,2 C 0,6 C -0,4 C 0,0 C 87 % 92 % 1033,6 hPa 0,0 l/m 0,0 km/h (0 Bft) O-NO 67 0 min -0,8 C -0,4 C 0,0 km/h (0 Bft)
02.03.2021 22:50 0,8 C 6,8 C 0,2 C 0,3 C -0,6 C 0,0 C 86 % 92 % 1033,5 hPa 0,0 l/m 0,0 km/h (0 Bft) O-NO 67 0 min -1,3 C -0,6 C 0,0 km/h (0 Bft)
02.03.2021 22:55 0,8 C 6,7 C 0,0 C 0,3 C -0,6 C 0,0 C 86 % 92 % 1033,5 hPa 0,0 l/m 0,0 km/h (0 Bft) O-NO 67 0 min -1,3 C -0,6 C 0,0 km/h (0 Bft)
02.03.2021 23:00 0,8 C 6,7 C -0,1 C 0,3 C -0,8 C 0,0 C 87 % 92 % 1033,5 hPa 0,0 l/m 0,0 km/h (0 Bft) O-NO 67 0 min -1,1 C -0,8 C 0,0 km/h (0 Bft)
02.03.2021 23:05 0,7 C 6,7 C -0,1 C 0,2 C -0,8 C 0,0 C 87 % 92 % 1033,5 hPa 0,0 l/m 0,0 km/h (0 Bft) O-NO 67 0 min -1,2 C -0,8 C 0,0 km/h (0 Bft)
02.03.2021 23:10 0,6 C 6,7 C -0,1 C 0,1 C -1,0 C 0,0 C 87 % 92 % 1033,8 hPa 0,0 l/m 0,0 km/h (0 Bft) O-NO 67 0 min -1,3 C -1,0 C 0,0 km/h (0 Bft)
02.03.2021 23:15 0,5 C 6,7 C -0,2 C 0,0 C -1,1 C 0,0 C 87 % 92 % 1033,8 hPa 0,0 l/m 0,0 km/h (0 Bft) O-NO 67 0 min -1,4 C -1,1 C 0,0 km/h (0 Bft)
02.03.2021 23:20 0,4 C 6,7 C -0,3 C -0,1 C -1,2 C 0,0 C 87 % 92 % 1033,8 hPa 0,0 l/m 0,0 km/h (0 Bft) O-NO 67 0 min -1,5 C -1,2 C 0,0 km/h (0 Bft)
02.03.2021 23:25 0,4 C 6,7 C -0,3 C -0,1 C -1,0 C 0,0 C 87 % 92 % 1033,8 hPa 0,0 l/m 0,0 km/h (0 Bft) O-NO 67 0 min -1,5 C -1,0 C 0,0 km/h (0 Bft)
02.03.2021 23:30 0,3 C 6,7 C -0,5 C -0,2 C -1,1 C 0,0 C 87 % 92 % 1033,8 hPa 0,0 l/m 0,0 km/h (0 Bft) O-NO 67 0 min -1,6 C -1,1 C 0,0 km/h (0 Bft)
02.03.2021 23:35 0,2 C 6,7 C -0,5 C -0,3 C -1,3 C 0,0 C 87 % 92 % 1033,8 hPa 0,0 l/m 0,0 km/h (0 Bft) O-NO 67 0 min -1,7 C -1,3 C 0,0 km/h (0 Bft)
02.03.2021 23:40 0,3 C 6,7 C -0,6 C -0,2 C -1,2 C 0,0 C 87 % 92 % 1033,8 hPa 0,0 l/m 0,0 km/h (0 Bft) O-NO 67 0 min -1,6 C -1,2 C 0,0 km/h (0 Bft)
02.03.2021 23:45 0,1 C 6,7 C -0,6 C -0,3 C -1,1 C 0,0 C 87 % 92 % 1033,8 hPa 0,0 l/m 0,0 km/h (0 Bft) O-NO 67 0 min -1,8 C -1,1 C 0,0 km/h (0 Bft)
02.03.2021 23:50 0,1 C 6,7 C -0,7 C -0,4 C -1,3 C 0,0 C 87 % 92 % 1033,1 hPa 0,0 l/m 0,0 km/h (0 Bft) O-NO 67 0 min -1,8 C -1,3 C 0,0 km/h (0 Bft)
02.03.2021 23:55 -0,1 C 6,7 C -0,7 C -0,6 C -1,5 C 0,0 C 87 % 92 % 1033,1 hPa 0,0 l/m 0,0 km/h (0 Bft) O-NO 67 0 min -2,0 C -1,5 C 0,0 km/h (0 Bft)
_ Min-Zeit 08:00 12:27 06:27 06:27 06:27 17:45 16:00 15:50 19:32 - 00:00 - - - 08:00 06:27 00:00
Minimum _ -3,3 C 5,0 C -1,4 C -2,2 C -2,2 C 0,0 C 64 % 70 % 1032,8 hPa - 0,0 km/h (0 Bft) - - - -4,8 C -2,2 C 0,0 km/h (0 Bft)
_ Max-Zeit 15:20 20:27 15:25 14:11 14:11 12:27 10:05 08:27 01:30 00:00 08:55 - - 10:27 15:15 14:11 08:50
Maximum _ 13,1 C 6,9 C 12,0 C 19,8 C 19,8 C 11,3 C 90 % 94 % 1036,4 hPa 0,0 l/m 2,6 km/h
S-SO (1 Bft)
- - 16 min 8,5 C 19,8 C 6,6 km/h
S (2 Bft)
Durchschnitt _ 2,8 C 5,9 C 2,9 C 5,0 C 4,8 C 2,4 C 84 % 89 % 1034,8 hPa #0,0 l/m 0,2 km/h (0 Bft) S - #8:30 h 0,3 C 4,8 C 0,4 km/h (0 Bft)
2021 www.wetterstation-wechselburg.de